www.pogodaiklimat.ru

Погода и климат >> Архив погоды >> Россия >> Якутия >> Юрты


ПОГОДА в Юртах

  • Прогноз погоды в Юртах
  • Монитор погоды в Юртах
  • Климат города

АРХИВ ПОГОДЫ в Юртах

Время (UTC), дата Ветер
(напр.,м/с)
 
Видим.   Явления Облачность Т
(С)
Тd
(С)
f
(%)
Тe
(С)
Тes
(С)
Комфортность P
(гПа)
Po
(гПа)
Тmin
(С)
Tmax
(С)
R
(мм)
R24
(мм)
S
(см)
06 23.04 штиль 0 50 км ясно +5.5 -8.4 36 +5 +12 1023.2 952.4
12 23.04 штиль 0 50 км ясно -2.5 -11.9 48 -3 -3 1025.1 952.0
15 23.04 штиль 0 50 км ясно -8.5 -8.4 100 -9 -9 1027.6 952.8
18 23.04 штиль 0 50 км ясно -11.0 -11.0 100 -11 -11 1028.8 953.3
21 23.04 штиль 0 50 км 6/0
[Ci fib]
-11.4 -11.4 100 -12 -10 1029.4 953.7 -11.4 16
00 24.04 Ю 2 50 км 4/0
[Ci fib]
-2.0 -7.8 64 -6 +1 1027.4 954.4
03 24.04 Ю 2 50 км 10/0
[Ci fib]
+4.8 -6.3 44 +3 +10 1024.3 953.1
06 24.04 Ю 1 20 км 3/0
[Ci fib]
+6.1 -9.8 31 +6 +12 1021.2 950.6
09 24.04 штиль 0 50 км ясно +4.8 -2.9 57 +4 +5 1021.3 950.4 +6.4
12 24.04 штиль 0 50 км ясно -2.0 -7.3 67 -3 -3 1022.6 949.8
15 24.04 50 км 3/0
[Ac trans]
-4.2 -7.2 80 1023.2 949.5
18 24.04 Ю 1 50 км 9/9 1000 м
[Sc]
-7.2 -8.5 90 -10 -10 1024.0 949.8
21 24.04 Ю 2 50 км 8/8 1000 м
[Sc]
-4.0 -8.1 73 -8 -8 1021.5 948.4 -7.2 13
00 25.04 Ю 2 50 км ясно 0.0 -7.2 58 -3 +4 1020.2 948.2
03 25.04 Ю 1 50 км 8/8 1000 м
[Cb cap]
+6.0 -7.0 39 +6 +8 1016.6 946.3
06 25.04 Ю 1 50 км 8/8 600 м
[Cb cap]
+6.5 -6.6 39 +6 +7 1014.9 944.8
09 25.04 штиль 0 50 км 8/8 600 м
[Cb cap]
+7.0 -4.0 45 +7 +7 1013.7 943.8 +7.0
12 25.04 штиль 0 50 км 8/8 600 м
[Cb cap]
+1.5 -4.7 63 +1 +1 1015.3 944.0
15 25.04 штиль 0 50 км {снег} 10/10 600 м
[Cb cap]
-1.5 -5.1 76 -2 -2 1016.3 944.2
18 25.04 штиль 0 50 км {снег} 8/8 600 м
[Cb cap]
-4.6 -7.0 83 -6 -6 1017.2 944.3
21 25.04 штиль 0 50 км 10/10 1000 м
[Sc]
-3.2 -3.3 99 -5 -5 1014.7 942.3 -4.6 0.0 9
00 26.04 Ю 1 50 км 8/8 600 м
[Cb cap]
+0.7 -8.2 51 -1 +1 1013.3 941.6
03 26.04 штиль 0 50 км 8/8 600 м
[Cb cap]
0.0 -7.1 59 -1 +2 1009.3 938.8
06 26.04 штиль 0 50 км {снег} 9/9 600 м
[Cb cap]
+3.5 -0.9 73 +3 +3 1007.3 937.1
09 26.04 штиль 0 50 км 6/6 600 м
[Cb cap]
+5.0 +0.6 73 +4 +5 1005.3 935.5 +0.7 0.0
12 26.04 штиль 0 50 км 10/0
[Ac As]
+3.0 -3.5 62 +2 +2 1004.8 934.6
15 26.04 штиль 0 50 км 10/0
[Ac As]
0.0 -4.4 72 -1 -1 1005.3 934.4
18 26.04 штиль 0 50 км 10/0
[As op]
-1.0 -4.9 75 -2 -2 1003.4 932.4
21 26.04 штиль 0 50 км 10/0
[As op]
+0.5 -3.8 73 -0 0 1001.9 931.3 -1.0 6
00 27.04 штиль 0 50 км 10/0
[As op]
+1.5 -5.1 61 +1 +3 1000.6 930.5
03 27.04 штиль 0 50 км 10/10 600 м
[Cb cap]
+3.5 -2.8 63 +3 +3 999.2 929.5
06 27.04 штиль 0 50 км 10/10 600 м
[Cb cap]
+4.5 -1.9 63 +4 +4 998.2 928.8
09 27.04 СЗ 1 50 км 10/10 600 м
[Cb cap]
+1.0 -0.2 92 -1 -1 999.2 928.9 +4.5
12 27.04 штиль 0 50 км {снег} 10/0
[As op]
0.0 -0.9 94 -1 -1 998.7 928.2
15 27.04 штиль 0 50 км 10/0
[As op]
0.0 -0.6 96 -1 -1 999.9 929.3
18 27.04 штиль 0 50 км слабый снег 10/0
[As op]
0.0 -0.6 96 -1 -1 999.1 928.5
21 27.04 штиль 0 10 км слабый снег 10/0
[As op]
-2.0 -2.3 98 -3 -3 1000.3 929.2 -2.0 0.4 7
00 28.04 штиль 0 50 км {снег} 10/10 600 м
[Cb cap]
0.0 -2.4 84 -1 -1 999.5 928.9
03 28.04 штиль 0 50 км 8/8 600 м
[Cb cap]
+3.0 -3.5 62 +2 +5 997.0 927.4
06 28.04 штиль 0 50 км 6/6 1000 м
[Cb cap]
+4.5 -7.3 42 +4 +7 995.8 926.6
09 28.04 штиль 0 10 км слабый снег 9/0
[As trans]
+0.5 -2.5 80 -1 0 997.0 926.7 +4.5 0.0
12 28.04 штиль 0 50 км {снег} 6/6 600 м
[Cb cap]
-1.5 -3.7 85 -3 -3 997.7 926.9
15 28.04 штиль 0 50 км 3/3 1000 м
[Cb cap]
-3.0 -4.0 93 -4 -4 998.2 927.0
18 28.04 штиль 0 50 км 8/0
[As trans]
-3.0 -3.7 95 -4 -4 999.7 928.4
21 28.04 Ю 2 20 км слабый ливневой снег 10/10 600 м
[Cb cap]
-3.4 -6.6 78 -7 -7 1001.1 929.5 -3.4 0.3 4
00 29.04 Ю 1 50 км {снег} 6/6 600 м
[Cb cap]
-1.2 -5.2 74 -3 0 1001.7 930.7
03 29.04 Ю 6 50 км 8/6 600 м
[Cb cap]
+6.0 -4.4 47 +2 +3 1000.0 931.1
06 29.04 Ю 3 50 км 8/8 600 м
[Cb cap]
+3.2 -8.1 43 0 +1 1001.1 931.2
09 29.04 штиль 0 50 км сильная морось 6/6 1000 м
[]
+3.8 -6.6 47 +4 +4 1001.5 931.8 +6.0
12 29.04 Ю 2 50 км 3/3 1000 м
[Sc]
-2.0 -6.2 73 -6 -6 1004.0 932.6
15 29.04 штиль 0 50 км 1/1 1000 м
[Sc]
-6.1 -10.1 73 -7 -7 1007.4 934.6
18 29.04 50 км н/о -9.4 -9.7 98 -10 -10 1009.3 935.6
21 29.04 Ю 5 50 км 8/8 600 м
[Cb cap]
-10.1 -12.1 85 -18 -18 1010.3 936.3 -10.1 3
00 30.04 Ю 1 50 км 4/3 1000 м
[Sc Ci fib]
-0.4 -7.0 61 -2 +4 1007.4 936.2

 

Местоположение метеостанции Юрты (Якутия, Россия): широта 64.05 долгота 141.80 высота над уровнем моря 590 м.

В архиве по умолчанию представлена погода в Юртах за последнюю неделю. Архивные данные за месяц целиком и за предыдущие месяцы, начиная с января 2011 года, Вы можете получить, выбрав интересующий диапазон дат из раскрывающегося списка и нажав кнопку "Ввод!".

Внимание! Время в таблицах - всемирное. Для получения местного времени необходимо прибавить поправку, которая в Юртах равна 10 ч.

Смотрите также архив погоды в соседних городах и на ближайших метеорологических станциях:

Погода в Агаякане (Якутия, Россия) (80 км)
Погода в Усть-Нере (Якутия, Россия) (82 км)
Погода в Оймяконе (Якутия, Россия) (110 км)
Погода в Восточной (Якутия, Россия) (142 км)
Погода в Делянкире (Якутия, Россия) (187 км)
Погода в Усть-Моме (Якутия, Россия) (275 км)
Погода в Теплом Ключе (Якутия, Россия) (286 км)
Погода в Томпо (Якутия, Россия) (293 км)
Погода в Иэме (Якутия, Россия) (317 км)
Погода в Сусумане (Магаданская область, Россия) (344 км)

Пояснения к столбцам:

Ветер - указаны скорость ветра в м/с - средняя за 10 мин, порывы в срок и между сроками (в фигурных скобках) и направление, откуда дует ветер: С - северный, СВ - северо-восточный, В - восточный, ЮВ - юго-восточный, Ю - южный, ЮЗ - юго-западный, З - западный, СЗ - северо-западный.
Видимость - горизонтальная дальность видимости в метрах или километрах. При видимости от 1 до 10 км при отсутствии осадков обычно наблюдается дымка, при ухудшении видимости до 1 км и менее - туман. В сухую погоду видимость может ухудшаться дымом, пылью или мглою.
Явления - указаны атмосферные явления, наблюдавшиеся в срок или в последний час перед сроком; фигурными скобками обозначены явления, наблюдавшиеся между сроками (за 1-3 часа до срока); квадратными скобками обозначены град или гололедные отложения с указанием их диаметра в мм.
Облачность - указаны через наклонную черту общая и нижняя облачность в баллах и высота нижней границы облаков в метрах; квадратными скобками обозначены формы облаков: Ci - перистые, Cs - перисто-слоистые, Cc - перисто-кучевые, Ac - высококучевые, As - высокослоистые, Sc - слоисто-кучевые, Ns - слоисто-дождевые, Cu - кучевые, Cb - кучево-дождевые. Подробнее классификацию облаков см. в Атласе облаков (PDF).
T - Температура воздуха - температура, измеренная на высоте 2 м над землей.
Td - Температура точки росы - температура, при понижении до которой содержащийся в воздухе водяной пар достигнет насыщения.
f - Относительная влажность воздуха - влажноcть воздуха, измеренная на высоте 2 м над землей.
Te - Эффективная температура - температура, которую ощущает одетый по сезону человек в тени. Характеристика душности погоды. При расчете учитывается влияние влажности воздуха и скорости ветра на теплоощущения человека.
Tes - Эффективная температура на солнце - температура, которую ощущает человек, с поправкой на солнечный нагрев. Характеристика знойности погоды. Зависит от высоты солнца над горизонтом, облачности и скорости ветра. Ночью, в пасмурную погоду, а также при ветре 12 м/с и более поправка равна нулю.
P - Атмосферное давление - приведенное к уровню моря атмосферное давление.
Po - Атмосферное давление - измеренное на уровне метеостанции атмосферное давление.
Tmin - Минимальная температура - минимум температуры воздуха на высоте 2 м над землей.
Tmax - Максимальная температура - максимум температуры воздуха на высоте 2 м над землей.
R - Количество осадков - Количество выпавших осадков за период времени, мм. При наведении курсора мыши на число - период времени, за который выпало указанное количество осадков.
R24 - Количество осадков - Количество выпавших осадков за 24 часа, мм.
S - Снежный покров - Высота снежного покрова, см. При наведении курсора мыши на число - состояние снежного покрова и степень покрытия местности в баллах.